Year,Month,Day,Hour,Minute,Value (Times are PST for windspeed in km/hr)
2015,09,12,00,00,1.30
2015,09,12,00,01,1.20
2015,09,12,00,02,1.60
2015,09,12,00,03,1.40
2015,09,12,00,04,2.00
2015,09,12,00,05,2.40
2015,09,12,00,06,2.50
2015,09,12,00,07,3.80
2015,09,12,00,08,2.60
2015,09,12,00,09,2.30
2015,09,12,00,10,2.10
2015,09,12,00,11,2.30
2015,09,12,00,12,2.40
2015,09,12,00,13,1.80
2015,09,12,00,14,1.10
2015,09,12,00,15,0.40
2015,09,12,00,16,0.00
2015,09,12,00,17,0.20
2015,09,12,00,18,0.10
2015,09,12,00,19,0.00
2015,09,12,00,20,0.00
2015,09,12,00,21,0.00
2015,09,12,00,22,0.00
2015,09,12,00,23,0.00
2015,09,12,00,24,0.10
2015,09,12,00,25,0.60
2015,09,12,00,26,0.50
2015,09,12,00,27,0.60
2015,09,12,00,28,0.80
2015,09,12,00,29,0.10
2015,09,12,00,30,0.10
2015,09,12,00,31,0.20
2015,09,12,00,32,0.10
2015,09,12,00,33,0.00
2015,09,12,00,34,0.10
2015,09,12,00,35,0.00
2015,09,12,00,36,0.00
2015,09,12,00,37,0.10
2015,09,12,00,38,0.20
2015,09,12,00,39,0.20
2015,09,12,00,40,1.10
2015,09,12,00,41,0.90
2015,09,12,00,42,0.40
2015,09,12,00,43,0.20
2015,09,12,00,44,0.10
2015,09,12,00,45,0.30
2015,09,12,00,46,0.20
2015,09,12,00,47,1.50
2015,09,12,00,48,1.10
2015,09,12,00,49,1.50
2015,09,12,00,50,1.90
2015,09,12,00,51,1.40
2015,09,12,00,52,3.50
2015,09,12,00,53,1.40
2015,09,12,00,54,2.90
2015,09,12,00,55,2.30
2015,09,12,00,56,0.70
2015,09,12,00,57,0.60
2015,09,12,00,58,0.20
2015,09,12,00,59,0.10
2015,09,12,01,00,0.30
2015,09,12,01,01,0.40
2015,09,12,01,02,2.00
2015,09,12,01,03,1.60
2015,09,12,01,04,1.50
2015,09,12,01,05,3.60
2015,09,12,01,06,1.60
2015,09,12,01,07,2.30
2015,09,12,01,08,1.80
2015,09,12,01,09,1.40
2015,09,12,01,10,2.00
2015,09,12,01,11,1.00
2015,09,12,01,12,2.40
2015,09,12,01,13,2.20
2015,09,12,01,14,1.90
2015,09,12,01,15,1.30
2015,09,12,01,16,1.00
2015,09,12,01,17,1.60
2015,09,12,01,18,2.40
2015,09,12,01,19,2.30
2015,09,12,01,20,2.30
2015,09,12,01,21,2.80
2015,09,12,01,22,2.10
2015,09,12,01,23,2.90
2015,09,12,01,24,2.60
2015,09,12,01,25,1.50
2015,09,12,01,26,1.50
2015,09,12,01,27,1.10
2015,09,12,01,28,0.90
2015,09,12,01,29,1.40
2015,09,12,01,30,1.70
2015,09,12,01,31,1.30
2015,09,12,01,32,1.20
2015,09,12,01,33,0.70
2015,09,12,01,34,0.50
2015,09,12,01,35,0.50
2015,09,12,01,36,0.10
2015,09,12,01,37,1.50
2015,09,12,01,38,0.20
2015,09,12,01,39,0.00
2015,09,12,01,40,0.10
2015,09,12,01,41,0.40
2015,09,12,01,42,0.40
2015,09,12,01,43,0.20
2015,09,12,01,44,0.10
2015,09,12,01,45,0.60
2015,09,12,01,46,0.70
2015,09,12,01,47,0.60
2015,09,12,01,48,0.40
2015,09,12,01,49,0.10
2015,09,12,01,50,0.40
2015,09,12,01,51,0.50
2015,09,12,01,52,0.80
2015,09,12,01,53,0.50
2015,09,12,01,54,0.40
2015,09,12,01,55,0.20
2015,09,12,01,56,0.80
2015,09,12,01,57,1.30
2015,09,12,01,58,1.70
2015,09,12,01,59,2.10
2015,09,12,02,00,2.10
2015,09,12,02,01,2.10
2015,09,12,02,02,1.80
2015,09,12,02,03,1.60
2015,09,12,02,04,1.80
2015,09,12,02,05,2.00
2015,09,12,02,06,2.60
2015,09,12,02,07,2.30
2015,09,12,02,08,2.00
2015,09,12,02,09,2.50
2015,09,12,02,10,2.40
2015,09,12,02,11,1.80
2015,09,12,02,12,2.20
2015,09,12,02,13,2.20
2015,09,12,02,14,2.10
2015,09,12,02,15,2.40
2015,09,12,02,16,3.90
2015,09,12,02,17,3.40
2015,09,12,02,18,4.30
2015,09,12,02,19,3.60
2015,09,12,02,20,4.30
2015,09,12,02,21,4.10
2015,09,12,02,22,2.30
2015,09,12,02,23,2.70
2015,09,12,02,24,2.40
2015,09,12,02,25,2.50
2015,09,12,02,26,2.50
2015,09,12,02,27,2.10
2015,09,12,02,28,2.10
2015,09,12,02,29,2.50
2015,09,12,02,30,3.60
2015,09,12,02,31,2.60
2015,09,12,02,32,1.50
2015,09,12,02,33,2.80
2015,09,12,02,34,2.40
2015,09,12,02,35,3.00
2015,09,12,02,36,2.00
2015,09,12,02,37,3.40
2015,09,12,02,38,4.30
2015,09,12,02,39,3.20
2015,09,12,02,40,2.00
2015,09,12,02,41,0.80
2015,09,12,02,42,1.20
2015,09,12,02,43,1.20
2015,09,12,02,44,1.80
2015,09,12,02,45,2.10
2015,09,12,02,46,1.70
2015,09,12,02,47,3.20
2015,09,12,02,48,2.70
2015,09,12,02,49,1.50
2015,09,12,02,50,1.50
2015,09,12,02,51,1.80
2015,09,12,02,52,1.50
2015,09,12,02,53,1.90
2015,09,12,02,54,2.10
2015,09,12,02,55,1.70
2015,09,12,02,56,1.60
2015,09,12,02,57,1.50
2015,09,12,02,58,1.40
2015,09,12,02,59,1.10
2015,09,12,03,00,1.90
2015,09,12,03,01,2.40
2015,09,12,03,02,1.30
2015,09,12,03,03,1.10
2015,09,12,03,04,1.10
2015,09,12,03,05,0.60
2015,09,12,03,06,2.00
2015,09,12,03,07,1.10
2015,09,12,03,08,0.40
2015,09,12,03,09,0.90
2015,09,12,03,10,1.20
2015,09,12,03,11,1.20
2015,09,12,03,12,1.20
2015,09,12,03,13,1.20
2015,09,12,03,14,1.70
2015,09,12,03,15,1.60
2015,09,12,03,16,0.80
2015,09,12,03,17,1.50
2015,09,12,03,18,1.60
2015,09,12,03,19,1.80
2015,09,12,03,20,0.90
2015,09,12,03,21,1.30
2015,09,12,03,22,2.90
2015,09,12,03,23,3.00
2015,09,12,03,24,2.60
2015,09,12,03,25,2.90
2015,09,12,03,26,2.40
2015,09,12,03,27,2.30
2015,09,12,03,28,2.10
2015,09,12,03,29,1.90
2015,09,12,03,30,1.50
2015,09,12,03,31,1.00
2015,09,12,03,32,0.10
2015,09,12,03,33,0.10
2015,09,12,03,34,0.80
2015,09,12,03,35,1.60
2015,09,12,03,36,0.80
2015,09,12,03,37,0.80
2015,09,12,03,38,0.40
2015,09,12,03,39,0.00
2015,09,12,03,40,0.00
2015,09,12,03,41,0.30
2015,09,12,03,42,0.50
2015,09,12,03,43,0.00
2015,09,12,03,44,0.60
2015,09,12,03,45,0.40
2015,09,12,03,46,0.40
2015,09,12,03,47,0.30
2015,09,12,03,48,0.50
2015,09,12,03,49,0.10
2015,09,12,03,50,0.00
2015,09,12,03,51,0.30
2015,09,12,03,52,0.20
2015,09,12,03,53,0.40
2015,09,12,03,54,0.40
2015,09,12,03,55,0.60
2015,09,12,03,56,1.10
2015,09,12,03,57,1.20
2015,09,12,03,58,1.00
2015,09,12,03,59,1.20
2015,09,12,04,00,1.40
2015,09,12,04,01,1.40
2015,09,12,04,02,0.50
2015,09,12,04,03,0.10
2015,09,12,04,04,1.20
2015,09,12,04,05,2.70
2015,09,12,04,06,2.10
2015,09,12,04,07,2.10
2015,09,12,04,08,2.30
2015,09,12,04,09,2.10
2015,09,12,04,10,1.70
2015,09,12,04,11,0.90
2015,09,12,04,12,1.80
2015,09,12,04,13,1.90
2015,09,12,04,14,2.20
2015,09,12,04,15,1.90
2015,09,12,04,16,1.40
2015,09,12,04,17,0.80
2015,09,12,04,18,1.30
2015,09,12,04,19,0.30
2015,09,12,04,20,0.00
2015,09,12,04,21,0.90
2015,09,12,04,22,1.20
2015,09,12,04,23,0.50
2015,09,12,04,24,0.00
2015,09,12,04,25,0.00
2015,09,12,04,26,0.00
2015,09,12,04,27,0.00
2015,09,12,04,28,0.00
2015,09,12,04,29,0.40
2015,09,12,04,30,0.30
2015,09,12,04,31,0.10
2015,09,12,04,32,0.00
2015,09,12,04,33,0.00
2015,09,12,04,34,0.00
2015,09,12,04,35,0.00
2015,09,12,04,36,0.10
2015,09,12,04,37,0.80
2015,09,12,04,38,1.10
2015,09,12,04,39,0.90
2015,09,12,04,40,0.40
2015,09,12,04,41,0.10
2015,09,12,04,42,0.30
2015,09,12,04,43,0.00
2015,09,12,04,44,0.00
2015,09,12,04,45,0.00
2015,09,12,04,46,0.00
2015,09,12,04,47,0.30
2015,09,12,04,48,0.20
2015,09,12,04,49,0.70
2015,09,12,04,50,1.30
2015,09,12,04,51,1.10
2015,09,12,04,52,0.40
2015,09,12,04,53,0.40
2015,09,12,04,54,0.00
2015,09,12,04,55,0.60
2015,09,12,04,56,1.10
2015,09,12,04,57,0.30
2015,09,12,04,58,0.00
2015,09,12,04,59,0.10
2015,09,12,05,00,0.00
2015,09,12,05,01,0.00
2015,09,12,05,02,1.10
2015,09,12,05,03,0.50
2015,09,12,05,04,0.90
2015,09,12,05,05,1.80
2015,09,12,05,06,1.90
2015,09,12,05,07,1.80
2015,09,12,05,08,1.80
2015,09,12,05,09,1.40
2015,09,12,05,10,0.80
2015,09,12,05,11,0.10
2015,09,12,05,12,0.40
2015,09,12,05,13,0.40
2015,09,12,05,14,0.50
2015,09,12,05,15,1.00
2015,09,12,05,16,1.60
2015,09,12,05,17,1.30
2015,09,12,05,18,1.30
2015,09,12,05,19,1.80
2015,09,12,05,20,0.80
2015,09,12,05,21,0.40
2015,09,12,05,22,0.20
2015,09,12,05,23,0.00
2015,09,12,05,24,0.00
2015,09,12,05,25,0.10
2015,09,12,05,26,0.00
2015,09,12,05,27,0.00
2015,09,12,05,28,0.00
2015,09,12,05,29,0.10
2015,09,12,05,30,0.00
2015,09,12,05,31,0.00
2015,09,12,05,32,0.00
2015,09,12,05,33,0.20
2015,09,12,05,34,0.10
2015,09,12,05,35,0.00
2015,09,12,05,36,0.00
2015,09,12,05,37,0.50
2015,09,12,05,38,1.10
2015,09,12,05,39,0.70
2015,09,12,05,40,0.80
2015,09,12,05,41,0.70
2015,09,12,05,42,1.20
2015,09,12,05,43,1.10
2015,09,12,05,44,1.50
2015,09,12,05,45,0.90
2015,09,12,05,46,0.70
2015,09,12,05,47,0.10
2015,09,12,05,48,0.00
2015,09,12,05,49,0.00
2015,09,12,05,50,0.00
2015,09,12,05,51,0.10
2015,09,12,05,52,0.40
2015,09,12,05,53,0.00
2015,09,12,05,54,0.10
2015,09,12,05,55,1.00
2015,09,12,05,56,1.30
2015,09,12,05,57,2.10
2015,09,12,05,58,1.30
2015,09,12,05,59,1.50
2015,09,12,06,00,1.50
2015,09,12,06,01,1.20
2015,09,12,06,02,1.00
2015,09,12,06,03,0.80
2015,09,12,06,04,1.00
2015,09,12,06,05,0.50
2015,09,12,06,06,1.20
2015,09,12,06,07,0.70
2015,09,12,06,08,0.00
2015,09,12,06,09,0.10
2015,09,12,06,10,0.00
2015,09,12,06,11,0.00
2015,09,12,06,12,0.00
2015,09,12,06,13,0.00
2015,09,12,06,14,0.00
2015,09,12,06,15,0.00
2015,09,12,06,16,0.00
2015,09,12,06,17,0.00
2015,09,12,06,18,0.40
2015,09,12,06,19,0.10
2015,09,12,06,20,0.10
2015,09,12,06,21,0.00
2015,09,12,06,22,0.00
2015,09,12,06,23,0.10
2015,09,12,06,24,0.10
2015,09,12,06,25,0.50
2015,09,12,06,26,0.10
2015,09,12,06,27,0.00
2015,09,12,06,28,0.00
2015,09,12,06,29,0.00
2015,09,12,06,30,0.00
2015,09,12,06,31,0.00
2015,09,12,06,32,0.00
2015,09,12,06,33,0.00
2015,09,12,06,34,0.00
2015,09,12,06,35,0.00
2015,09,12,06,36,0.00
2015,09,12,06,37,0.00
2015,09,12,06,38,0.00
2015,09,12,06,39,0.00
2015,09,12,06,40,0.10
2015,09,12,06,41,0.80
2015,09,12,06,42,1.30
2015,09,12,06,43,0.30
2015,09,12,06,44,0.00
2015,09,12,06,45,0.00
2015,09,12,06,46,0.00
2015,09,12,06,47,0.00
2015,09,12,06,48,0.10
2015,09,12,06,49,0.10
2015,09,12,06,50,0.00
2015,09,12,06,51,0.00
2015,09,12,06,52,0.00
2015,09,12,06,53,0.00
2015,09,12,06,54,0.00
2015,09,12,06,55,0.00
2015,09,12,06,56,0.10
2015,09,12,06,57,0.00
2015,09,12,06,58,0.40
2015,09,12,06,59,1.20
2015,09,12,07,00,1.50
2015,09,12,07,01,0.80
2015,09,12,07,02,0.40
2015,09,12,07,03,0.30
2015,09,12,07,04,0.00
2015,09,12,07,05,0.00
2015,09,12,07,06,0.00
2015,09,12,07,07,0.00
2015,09,12,07,08,0.00
2015,09,12,07,09,0.10
2015,09,12,07,10,0.00
2015,09,12,07,11,0.10
2015,09,12,07,12,0.00
2015,09,12,07,13,0.00
2015,09,12,07,14,0.10
2015,09,12,07,15,0.00
2015,09,12,07,16,0.00
2015,09,12,07,17,0.50
2015,09,12,07,18,0.20
2015,09,12,07,19,0.00
2015,09,12,07,20,0.00
2015,09,12,07,21,0.00
2015,09,12,07,22,0.10
2015,09,12,07,23,0.30
2015,09,12,07,24,0.60
2015,09,12,07,25,0.40
2015,09,12,07,26,0.10
2015,09,12,07,27,0.00
2015,09,12,07,28,0.10
2015,09,12,07,29,1.10
2015,09,12,07,30,1.20
2015,09,12,07,31,1.00
2015,09,12,07,32,0.80
2015,09,12,07,33,1.80
2015,09,12,07,34,2.40
2015,09,12,07,35,1.70
2015,09,12,07,36,1.30
2015,09,12,07,37,1.60
2015,09,12,07,38,1.80
2015,09,12,07,39,1.80
2015,09,12,07,40,2.10
2015,09,12,07,41,1.80
2015,09,12,07,42,2.20
2015,09,12,07,43,3.00
2015,09,12,07,44,4.20
2015,09,12,07,45,3.00
2015,09,12,07,46,3.10
2015,09,12,07,47,2.90
2015,09,12,07,48,2.50
2015,09,12,07,49,2.10
2015,09,12,07,50,2.10
2015,09,12,07,51,2.60
2015,09,12,07,52,2.70
2015,09,12,07,53,2.30
2015,09,12,07,54,3.00
2015,09,12,07,55,3.10
2015,09,12,07,56,3.80
2015,09,12,07,57,3.50
2015,09,12,07,58,4.00
2015,09,12,07,59,3.90
2015,09,12,08,00,5.10
2015,09,12,08,01,4.80
2015,09,12,08,02,5.50
2015,09,12,08,03,5.00
2015,09,12,08,04,3.40
2015,09,12,08,05,3.10
2015,09,12,08,06,3.10
2015,09,12,08,07,4.30
2015,09,12,08,08,3.30
2015,09,12,08,09,2.80
2015,09,12,08,10,1.70
2015,09,12,08,11,2.00
2015,09,12,08,12,1.50
2015,09,12,08,13,0.60
2015,09,12,08,14,0.00
2015,09,12,08,15,0.40
2015,09,12,08,16,0.30
2015,09,12,08,17,0.30
2015,09,12,08,18,1.40
2015,09,12,08,19,1.20
2015,09,12,08,20,2.30
2015,09,12,08,21,2.30
2015,09,12,08,22,2.70
2015,09,12,08,23,3.10
2015,09,12,08,24,3.30
2015,09,12,08,25,3.10
2015,09,12,08,26,3.00
2015,09,12,08,27,2.80
2015,09,12,08,28,2.60
2015,09,12,08,29,2.60
2015,09,12,08,30,1.60
2015,09,12,08,31,0.80
2015,09,12,08,32,0.50
2015,09,12,08,33,1.90
2015,09,12,08,34,2.40
2015,09,12,08,35,2.40
2015,09,12,08,36,2.10
2015,09,12,08,37,2.00
2015,09,12,08,38,1.80
2015,09,12,08,39,1.40
2015,09,12,08,40,2.20
2015,09,12,08,41,2.10
2015,09,12,08,42,2.00
2015,09,12,08,43,2.10
2015,09,12,08,44,1.80
2015,09,12,08,45,1.80
2015,09,12,08,46,1.90
2015,09,12,08,47,1.90
2015,09,12,08,48,0.80
2015,09,12,08,49,0.30
2015,09,12,08,50,0.10
2015,09,12,08,51,0.20
2015,09,12,08,52,0.90
2015,09,12,08,53,0.50
2015,09,12,08,54,0.80
2015,09,12,08,55,0.90
2015,09,12,08,56,1.70
2015,09,12,08,57,1.00
2015,09,12,08,58,0.80
2015,09,12,08,59,1.10
2015,09,12,09,00,1.10
2015,09,12,09,01,0.40
2015,09,12,09,02,0.30
2015,09,12,09,03,0.20
2015,09,12,09,04,0.20
2015,09,12,09,05,0.80
2015,09,12,09,06,0.50
2015,09,12,09,07,1.40
2015,09,12,09,08,2.00
2015,09,12,09,09,2.60
2015,09,12,09,10,2.30
2015,09,12,09,11,1.90
2015,09,12,09,12,1.90
2015,09,12,09,13,1.50
2015,09,12,09,14,1.90
2015,09,12,09,15,2.30
2015,09,12,09,16,2.10
2015,09,12,09,17,0.90
2015,09,12,09,18,1.50
2015,09,12,09,19,0.90
2015,09,12,09,20,2.00
2015,09,12,09,21,2.80
2015,09,12,09,22,2.10
2015,09,12,09,23,1.30
2015,09,12,09,24,2.30
2015,09,12,09,25,1.90
2015,09,12,09,26,1.00
2015,09,12,09,27,0.40
2015,09,12,09,28,1.90
2015,09,12,09,29,1.00
2015,09,12,09,30,2.20
2015,09,12,09,31,2.20
2015,09,12,09,32,1.00
2015,09,12,09,33,0.20
2015,09,12,09,34,0.20
2015,09,12,09,35,0.40
2015,09,12,09,36,0.10
2015,09,12,09,37,0.00
2015,09,12,09,38,0.20
2015,09,12,09,39,0.60
2015,09,12,09,40,0.30
2015,09,12,09,41,0.50
2015,09,12,09,42,0.10
2015,09,12,09,43,0.20
2015,09,12,09,44,0.40
2015,09,12,09,45,0.90
2015,09,12,09,46,1.30
2015,09,12,09,47,0.80
2015,09,12,09,48,1.80
2015,09,12,09,49,0.60
2015,09,12,09,50,1.50
2015,09,12,09,51,1.60
2015,09,12,09,52,2.20
2015,09,12,09,53,3.30
2015,09,12,09,54,3.20
2015,09,12,09,55,2.30
2015,09,12,09,56,1.80
2015,09,12,09,57,1.50
2015,09,12,09,58,2.10
2015,09,12,09,59,1.00
2015,09,12,10,00,0.90
2015,09,12,10,01,0.40
2015,09,12,10,02,0.70
2015,09,12,10,03,0.60
2015,09,12,10,04,1.00
2015,09,12,10,05,1.80
2015,09,12,10,06,2.90
2015,09,12,10,07,3.50
2015,09,12,10,08,0.50
2015,09,12,10,09,0.40
2015,09,12,10,10,0.30
2015,09,12,10,11,2.40
2015,09,12,10,12,2.50
2015,09,12,10,13,3.10
2015,09,12,10,14,2.00
2015,09,12,10,15,1.30
2015,09,12,10,16,2.20
2015,09,12,10,17,2.40
2015,09,12,10,18,2.00
2015,09,12,10,19,3.60
2015,09,12,10,20,2.90
2015,09,12,10,21,3.50
2015,09,12,10,22,3.80
2015,09,12,10,23,5.40
2015,09,12,10,24,4.10
2015,09,12,10,25,3.30
2015,09,12,10,26,3.30
2015,09,12,10,27,3.80
2015,09,12,10,28,3.90
2015,09,12,10,29,2.20
2015,09,12,10,30,5.00
2015,09,12,10,31,4.60
2015,09,12,10,32,1.00
2015,09,12,10,33,4.50
2015,09,12,10,34,4.20
2015,09,12,10,35,5.20
2015,09,12,10,36,4.30
2015,09,12,10,37,4.40
2015,09,12,10,38,5.30
2015,09,12,10,39,5.40
2015,09,12,10,40,6.00
2015,09,12,10,41,4.40
2015,09,12,10,42,1.40
2015,09,12,10,43,1.50
2015,09,12,10,44,4.00
2015,09,12,10,45,3.50
2015,09,12,10,46,5.50
2015,09,12,10,47,5.50
2015,09,12,10,48,5.00
2015,09,12,10,49,3.70
2015,09,12,10,50,4.90
2015,09,12,10,51,1.50
2015,09,12,10,52,4.50
2015,09,12,10,53,5.60
2015,09,12,10,54,6.20
2015,09,12,10,55,5.70
2015,09,12,10,56,3.10
2015,09,12,10,57,6.60
2015,09,12,10,58,7.10
2015,09,12,10,59,8.60
2015,09,12,11,00,9.30
2015,09,12,11,01,7.60
2015,09,12,11,02,8.00
2015,09,12,11,03,6.20
2015,09,12,11,04,7.30
2015,09,12,11,05,10.20
2015,09,12,11,06,6.40
2015,09,12,11,07,8.40
2015,09,12,11,08,7.40
2015,09,12,11,09,3.90
2015,09,12,11,10,5.10
2015,09,12,11,11,6.80
2015,09,12,11,12,10.10
2015,09,12,11,13,7.60
2015,09,12,11,14,6.30
2015,09,12,11,15,5.50
2015,09,12,11,16,3.20
2015,09,12,11,17,5.10
2015,09,12,11,18,7.20
2015,09,12,11,19,7.60
2015,09,12,11,20,9.20
2015,09,12,11,21,8.70
2015,09,12,11,22,5.10
2015,09,12,11,23,5.90
2015,09,12,11,24,6.40
2015,09,12,11,25,6.10
2015,09,12,11,26,5.00
2015,09,12,11,27,4.00
2015,09,12,11,28,5.40
2015,09,12,11,29,7.40
2015,09,12,11,30,4.40
2015,09,12,11,31,5.90
2015,09,12,11,32,3.60
2015,09,12,11,33,2.70
2015,09,12,11,34,1.50
2015,09,12,11,35,2.30
2015,09,12,11,36,2.10
2015,09,12,11,37,2.30
2015,09,12,11,38,3.60
2015,09,12,11,39,4.30
2015,09,12,11,40,3.20
2015,09,12,11,41,1.30
2015,09,12,11,42,1.50
2015,09,12,11,43,2.20
2015,09,12,11,44,2.10
2015,09,12,11,45,1.50
2015,09,12,11,46,2.20
2015,09,12,11,47,1.40
2015,09,12,11,48,1.60
2015,09,12,11,49,3.90
2015,09,12,11,50,4.50
2015,09,12,11,51,4.90
2015,09,12,11,52,1.50
2015,09,12,11,53,3.40
2015,09,12,11,54,6.90
2015,09,12,11,55,6.20
2015,09,12,11,56,3.70
2015,09,12,11,57,0.50
2015,09,12,11,58,1.70
2015,09,12,11,59,1.70
2015,09,12,12,00,1.10
2015,09,12,12,01,3.90
2015,09,12,12,02,7.10
2015,09,12,12,03,2.60
2015,09,12,12,04,1.40
2015,09,12,12,05,3.00
2015,09,12,12,06,4.70
2015,09,12,12,07,2.50
2015,09,12,12,08,5.50
2015,09,12,12,09,1.60
2015,09,12,12,10,4.30
2015,09,12,12,11,3.80
2015,09,12,12,12,3.30
2015,09,12,12,13,2.60
2015,09,12,12,14,6.10
2015,09,12,12,15,3.40
2015,09,12,12,16,2.10
2015,09,12,12,17,2.80
2015,09,12,12,18,2.50
2015,09,12,12,19,3.40
2015,09,12,12,20,4.40
2015,09,12,12,21,5.60
2015,09,12,12,22,5.00
2015,09,12,12,23,4.40
2015,09,12,12,24,4.50
2015,09,12,12,25,2.50
2015,09,12,12,26,1.50
2015,09,12,12,27,3.90
2015,09,12,12,28,2.60
2015,09,12,12,29,2.90
2015,09,12,12,30,5.00
2015,09,12,12,31,3.60
2015,09,12,12,32,2.20
2015,09,12,12,33,3.30
2015,09,12,12,34,2.90
2015,09,12,12,35,2.70
2015,09,12,12,36,3.50
2015,09,12,12,37,3.70
2015,09,12,12,38,5.70
2015,09,12,12,39,2.00
2015,09,12,12,40,3.00
2015,09,12,12,41,2.30
2015,09,12,12,42,2.30
2015,09,12,12,43,3.40
2015,09,12,12,44,3.60
2015,09,12,12,45,3.90
2015,09,12,12,46,4.50
2015,09,12,12,47,6.30
2015,09,12,12,48,8.50
2015,09,12,12,49,5.80
2015,09,12,12,50,7.80
2015,09,12,12,51,6.40
2015,09,12,12,52,5.30
2015,09,12,12,53,5.60
2015,09,12,12,54,2.70
2015,09,12,12,55,3.70
2015,09,12,12,56,4.20
2015,09,12,12,57,5.40
2015,09,12,12,58,7.00
2015,09,12,12,59,6.70
2015,09,12,13,00,4.70
2015,09,12,13,01,4.80
2015,09,12,13,02,4.10
2015,09,12,13,03,1.30
2015,09,12,13,04,1.80
2015,09,12,13,05,4.60
2015,09,12,13,06,4.40
2015,09,12,13,07,5.10
2015,09,12,13,08,4.60
2015,09,12,13,09,3.10
2015,09,12,13,10,5.50
2015,09,12,13,11,3.70
2015,09,12,13,12,4.60
2015,09,12,13,13,4.50
2015,09,12,13,14,6.80
2015,09,12,13,15,5.00
2015,09,12,13,16,3.70
2015,09,12,13,17,2.10
2015,09,12,13,18,3.20
2015,09,12,13,19,4.90
2015,09,12,13,20,3.50
2015,09,12,13,21,5.10
2015,09,12,13,22,5.70
2015,09,12,13,23,2.00
2015,09,12,13,24,1.30
2015,09,12,13,25,2.50
2015,09,12,13,26,6.20
2015,09,12,13,27,4.20
2015,09,12,13,28,2.30
2015,09,12,13,29,2.40
2015,09,12,13,30,4.00
2015,09,12,13,31,4.60
2015,09,12,13,32,3.90
2015,09,12,13,33,1.80
2015,09,12,13,34,4.20
2015,09,12,13,35,3.80
2015,09,12,13,36,3.20
2015,09,12,13,37,2.90
2015,09,12,13,38,4.60
2015,09,12,13,39,3.40
2015,09,12,13,40,2.70
2015,09,12,13,41,4.20
2015,09,12,13,42,6.00
2015,09,12,13,43,4.20
2015,09,12,13,44,3.30
2015,09,12,13,45,3.40
2015,09,12,13,46,1.80
2015,09,12,13,47,1.40
2015,09,12,13,48,1.80
2015,09,12,13,49,3.70
2015,09,12,13,50,3.70
2015,09,12,13,51,1.00
2015,09,12,13,52,1.20
2015,09,12,13,53,1.80
2015,09,12,13,54,4.50
2015,09,12,13,55,5.50
2015,09,12,13,56,3.60
2015,09,12,13,57,1.70
2015,09,12,13,58,1.10
2015,09,12,13,59,3.10
2015,09,12,14,00,6.40
2015,09,12,14,01,3.40
2015,09,12,14,02,4.00
2015,09,12,14,03,4.00
2015,09,12,14,04,6.70
2015,09,12,14,05,5.60
2015,09,12,14,06,4.40
2015,09,12,14,07,5.20
2015,09,12,14,08,3.30
2015,09,12,14,09,8.20
2015,09,12,14,10,6.10
2015,09,12,14,11,1.30
2015,09,12,14,12,5.60
2015,09,12,14,13,4.60
2015,09,12,14,14,8.00
2015,09,12,14,15,6.70
2015,09,12,14,16,7.80
2015,09,12,14,17,6.50
2015,09,12,14,18,6.10
2015,09,12,14,19,4.60
2015,09,12,14,20,7.00
2015,09,12,14,21,6.70
2015,09,12,14,22,6.80
2015,09,12,14,23,9.70
2015,09,12,14,24,7.80
2015,09,12,14,25,6.80
2015,09,12,14,26,6.40
2015,09,12,14,27,5.10
2015,09,12,14,28,5.60
2015,09,12,14,29,7.90
2015,09,12,14,30,5.50
2015,09,12,14,31,9.70
2015,09,12,14,32,6.20
2015,09,12,14,33,5.00
2015,09,12,14,34,7.40
2015,09,12,14,35,9.10
2015,09,12,14,36,5.90
2015,09,12,14,37,6.50
2015,09,12,14,38,7.90
2015,09,12,14,39,6.20
2015,09,12,14,40,8.50
2015,09,12,14,41,11.10
2015,09,12,14,42,9.50
2015,09,12,14,43,7.70
2015,09,12,14,44,9.40
2015,09,12,14,45,11.70
2015,09,12,14,46,11.30
2015,09,12,14,47,9.70
2015,09,12,14,48,6.40
2015,09,12,14,49,9.40
2015,09,12,14,50,8.90
2015,09,12,14,51,11.00
2015,09,12,14,52,9.70
2015,09,12,14,53,6.70
2015,09,12,14,54,10.60
2015,09,12,14,55,9.70
2015,09,12,14,56,10.10
2015,09,12,14,57,9.20
2015,09,12,14,58,8.10
2015,09,12,14,59,7.30
2015,09,12,15,00,6.80
2015,09,12,15,01,8.60
2015,09,12,15,02,13.60
2015,09,12,15,03,9.10
2015,09,12,15,04,9.60
2015,09,12,15,05,8.40
2015,09,12,15,06,7.00
2015,09,12,15,07,5.60
2015,09,12,15,08,12.70
2015,09,12,15,09,10.20
2015,09,12,15,10,11.30
2015,09,12,15,11,10.90
2015,09,12,15,12,13.50
2015,09,12,15,13,12.90
2015,09,12,15,14,11.70
2015,09,12,15,15,11.40
2015,09,12,15,16,10.10
2015,09,12,15,17,9.90
2015,09,12,15,18,9.80
2015,09,12,15,19,9.80
2015,09,12,15,20,8.90
2015,09,12,15,21,7.80
2015,09,12,15,22,5.00
2015,09,12,15,23,8.40
2015,09,12,15,24,10.80
2015,09,12,15,25,9.00
2015,09,12,15,26,7.90
2015,09,12,15,27,8.90
2015,09,12,15,28,8.50
2015,09,12,15,29,9.50
2015,09,12,15,30,10.10
2015,09,12,15,31,10.00
2015,09,12,15,32,5.50
2015,09,12,15,33,9.30
2015,09,12,15,34,7.80
2015,09,12,15,35,8.00
2015,09,12,15,36,4.10
2015,09,12,15,37,7.80
2015,09,12,15,38,8.60
2015,09,12,15,39,6.90
2015,09,12,15,40,9.80
2015,09,12,15,41,5.30
2015,09,12,15,42,6.30
2015,09,12,15,43,6.60
2015,09,12,15,44,9.90
2015,09,12,15,45,7.40
2015,09,12,15,46,5.60
2015,09,12,15,47,5.80
2015,09,12,15,48,6.60
2015,09,12,15,49,8.40
2015,09,12,15,50,8.30
2015,09,12,15,51,5.10
2015,09,12,15,52,7.70
2015,09,12,15,53,10.10
2015,09,12,15,54,6.70
2015,09,12,15,55,3.40
2015,09,12,15,56,8.00
2015,09,12,15,57,10.60
2015,09,12,15,58,7.80
2015,09,12,15,59,7.50
2015,09,12,16,00,4.20
2015,09,12,16,01,5.90
2015,09,12,16,02,7.90
2015,09,12,16,03,8.40
2015,09,12,16,04,11.30
2015,09,12,16,05,7.00
2015,09,12,16,06,5.60
2015,09,12,16,07,7.20
2015,09,12,16,08,8.00
2015,09,12,16,09,6.10
2015,09,12,16,10,8.10
2015,09,12,16,11,7.40
2015,09,12,16,12,6.30
2015,09,12,16,13,6.90
2015,09,12,16,14,6.30
2015,09,12,16,15,8.40
2015,09,12,16,16,8.00
2015,09,12,16,17,7.80
2015,09,12,16,18,8.00
2015,09,12,16,19,10.10
2015,09,12,16,20,8.70
2015,09,12,16,21,8.10
2015,09,12,16,22,8.10
2015,09,12,16,23,6.80
2015,09,12,16,24,5.90
2015,09,12,16,25,6.40
2015,09,12,16,26,8.00
2015,09,12,16,27,10.00
2015,09,12,16,28,9.50
2015,09,12,16,29,9.60
2015,09,12,16,30,8.80
2015,09,12,16,31,7.60
2015,09,12,16,32,5.60
2015,09,12,16,33,6.40
2015,09,12,16,34,9.20
2015,09,12,16,35,5.30
2015,09,12,16,36,5.90
2015,09,12,16,37,7.80
2015,09,12,16,38,6.60
2015,09,12,16,39,8.10
2015,09,12,16,40,10.60
2015,09,12,16,41,5.90
2015,09,12,16,42,5.70
2015,09,12,16,43,8.00
2015,09,12,16,44,7.60
2015,09,12,16,45,7.30
2015,09,12,16,46,7.30
2015,09,12,16,47,9.00
2015,09,12,16,48,14.50
2015,09,12,16,49,8.30
2015,09,12,16,50,8.90
2015,09,12,16,51,9.10
2015,09,12,16,52,5.60
2015,09,12,16,53,9.00
2015,09,12,16,54,9.60
2015,09,12,16,55,6.00
2015,09,12,16,56,8.30
2015,09,12,16,57,6.10
2015,09,12,16,58,7.70
2015,09,12,16,59,9.00
2015,09,12,17,00,10.30
2015,09,12,17,01,7.20
2015,09,12,17,02,10.70
2015,09,12,17,03,7.70
2015,09,12,17,04,6.80
2015,09,12,17,05,8.10
2015,09,12,17,06,9.00
2015,09,12,17,07,7.20
2015,09,12,17,08,8.80
2015,09,12,17,09,8.50
2015,09,12,17,10,10.60
2015,09,12,17,11,7.40
2015,09,12,17,12,7.90
2015,09,12,17,13,7.60
2015,09,12,17,14,8.10
2015,09,12,17,15,8.70
2015,09,12,17,16,9.70
2015,09,12,17,17,7.60
2015,09,12,17,18,9.90
2015,09,12,17,19,9.10
2015,09,12,17,20,10.20
2015,09,12,17,21,8.50
2015,09,12,17,22,9.40
2015,09,12,17,23,7.60
2015,09,12,17,24,5.80
2015,09,12,17,25,5.90
2015,09,12,17,26,5.10
2015,09,12,17,27,8.60
2015,09,12,17,28,9.50
2015,09,12,17,29,4.80
2015,09,12,17,30,7.60
2015,09,12,17,31,8.70
2015,09,12,17,32,6.80
2015,09,12,17,33,5.20
2015,09,12,17,34,9.10
2015,09,12,17,35,8.10
2015,09,12,17,36,8.40
2015,09,12,17,37,9.40
2015,09,12,17,38,9.60
2015,09,12,17,39,5.10
2015,09,12,17,40,8.40
2015,09,12,17,41,6.00
2015,09,12,17,42,7.90
2015,09,12,17,43,4.70
2015,09,12,17,44,7.60
2015,09,12,17,45,9.00
2015,09,12,17,46,5.80
2015,09,12,17,47,8.80
2015,09,12,17,48,4.20
2015,09,12,17,49,7.60
2015,09,12,17,50,7.30
2015,09,12,17,51,5.90
2015,09,12,17,52,9.10
2015,09,12,17,53,7.50
2015,09,12,17,54,6.60
2015,09,12,17,55,8.70
2015,09,12,17,56,5.60
2015,09,12,17,57,6.40
2015,09,12,17,58,10.20
2015,09,12,17,59,6.70
2015,09,12,18,00,6.70
2015,09,12,18,01,8.80
2015,09,12,18,02,6.70
2015,09,12,18,03,8.30
2015,09,12,18,04,5.50
2015,09,12,18,05,10.50